THORAD AGENA D DEB, 4706

Orbit data source: Space-Track

THORAD AGENA D DEB, 4706 is space debris in SSO originally from a launch on Wed, 08 Apr 1970 UTC launched from the Air Force Western Test Range (AFWTR). Debris objects in space refer to the collection of defunct objects orbiting the Earth. Examples of debris include non-operational satellites, rocket bodies, and fragments generated from explosions, collisions, or faulty payload assembly.

Loading next visibility...
Identifier
4706, 1970-025BU
Orbit
SSO
Country
Flag of USUS
Related business
Manufacturer
Unknown
Mission
Spacecraft
Bus & Motor
Unknown
Mass
Unknown
Launch date (UTC)
1970-04-08 (56 years ago)
Launch vehicle
Unknown
Launch site
Air Force Western Test Range (AFWTR)
Object type
Payload
Rocket body
Debris
Shape & HBR
Unknown shape, 0.1 m
Radar Cross Section
Medium (>0.1 m² and <1 m²)

Expand to show TLE details & history
Last TLE update: 11 hours ago

TLE from 11 hours ago
0 THORAD AGENA D DEB
1  4706U 70025BU  26237.93926019  .00000026  00000-0  11576-3 0  9991
2  4706  99.7709 134.1595 0033260 232.1282 188.4944 13.45875259766794
Epoch: 2026-08-25T22:32Z
TLE epoch observation values (Epoch: 2026-08-25T22:32:32.080Z)
Latitude
59.21993°
Longitude
165.11014°
Altitude
1,121.984 km
Speed
7.285 km/s
True Right ascension
07h 49m 46s
True Declination
59° 04' 33"
Sunlit
Object was in daylight at epoch
Visualization orbit readout
Latitude
Unknown
Longitude
Unknown
Altitude
Unknown
Speed
Unknown
Apparent Right ascension
Unknown
Apparent Declination
Unknown
Sunlit
N/A
Visualization observer readout
Local Sidereal Time
00:35:21
Azimuth
Unknown
Elevation
Unknown
Doppler factor
Unknown
Orbital elements
Apogee altitude
1,109.605 km
Perigee altitude
1,059.962 km
Semi-major axis
7,462.921 km
Eccentricity
0.00333
Inclination
99.7709°
RAAN
134.1595°
Arg. of periapsis
232.1282°
True anomaly
188.43833°
Mean anomaly
188.4944°
Eccentric anomaly
188.46634°
Mean motion
3.36651 °/min
Orbital period
106.94 mins
BSTAR
0.00011576
Loading maneuver chart data...
Computing Atmospheric mass density...

Documentation

Showing up to 5 results
|